DECAYED

STARLINK-1414, 45690 (Decayed)

Orbit data source: Space-Track

STARLINK-1414, 45690 was a payload satellite owned by SpaceX/Seattle (US) in LEO that was launched on Thu, 04 Jun 2020 UTC via an FALCON 9 launch vehicle from the Air Force Eastern Test Range (AFETR). Payload-class satellites include a variety of spacecraft equipped with specific instruments for various scientific and technological missions. These include communications satellites like Starlink; space stations such as the ISS; scientific satellites like the Hubble; Earth observation satellites from companies like Planet Labs, Umbra, and HawkEye 360; GPS; miniature CubeSats for education and research; and military/defense satellites.

Not visible in the next 10 days
Identifier
45690, 2020-035AK
Orbit
Decayed
Country
Flag of USUS
Related business
Manufacturer
SpaceX/Seattle
Mission
Decayed Commercial Communications
Bus & Motor
STARLINK, Unknown motor
Mass
260 kg wet, ~248 kg dry
Launch date (UTC)
2020-06-04 (6 years ago)
Launch vehicle
FALCON 9
Launch site
Air Force Eastern Test Range (AFETR)
Object type
Payload
Rocket body
Debris
Shape & HBR
Box + 1 Pan, 10.1 m
Radar Cross Section
13.562 m², Large (>1 m²)

Expand to show TLE details & history
Last TLE update: 10 months ago

TLE from 10 months ago
0 STARLINK-1414
1 45690U 20035AK  25098.01517462  .15901479  12461-4  45382-3 0  9993
2 45690  53.0236  70.0219 0008727 257.0738 223.1556 16.44721945268520
Epoch: 2025-04-08T00:21Z
TLE epoch observation values (Epoch: 2025-04-08T00:21:51.087Z)
Latitude
43.83292°
Longitude
2.09104°
Altitude
161.808 km
Speed
7.812 km/s
True Right ascension
13h 36m 18s
True Declination
43° 38' 44"
Sunlit
Object was in full shadow at epoch
Visualization orbit readout
Latitude
Unknown
Longitude
Unknown
Altitude
Unknown
Speed
Unknown
Apparent Right ascension
Unknown
Apparent Declination
Unknown
Sunlit
N/A
Visualization observer readout
Local Sidereal Time
08:45:19
Azimuth
Unknown
Elevation
Unknown
Doppler factor
Unknown
Orbital elements
Apogee altitude
159.264 km
Perigee altitude
147.863 km
Semi-major axis
6,531.7 km
Eccentricity
0.00087
Inclination
53.0236°
RAAN
70.0219°
Arg. of periapsis
257.0738°
True anomaly
223.08725°
Mean anomaly
223.1556°
Eccentric anomaly
223.12142°
Mean motion
4.11153 °/min
Orbital period
87.56 mins
BSTAR
0.00045382
Loading maneuver chart data...
Computing Atmospheric mass density...

Documentation

Showing up to 5 results
|